Weather History for Minneapolis Crystal, MN

Change the Weather History Date:

Monday, October 8, 2012

  Actual Average Record
Temperature  
Mean Temperature 50 °F -  
Max Temperature 63 °F 60 °F 86 °F (2010)
Min Temperature 36 °F 38 °F 25 °F (2000)
Degree Days  
Heating Degree Days 16    
Moisture  
Dew Point 30 °F    
Average Humidity 49    
Maximum Humidity 66    
Minimum Humidity 31    
Precipitation  
Precipitation 0.00 in - - ()
Sea Level Pressure  
Sea Level Pressure 29.72 in    
Wind  
Wind Speed 8 mph (SSW)    
Max Wind Speed 17 mph    
Max Gust Speed 24 mph    
Visibility 10 miles    
Events Rain    
Averages and records for this station are not official NWS values.
T = Trace of Precipitation, MM = Missing Value Source: NWS Daily Summary

Daily Weather History Graph

Daily Weather History Graph

Search for Another Location

Airport:

Trip Planner

Search our weather history database for the weather conditions in past years. The results will help you decide how hot, cold, wet, or windy it might be!

Date:

Astronomy

Oct. 08, 2012 Rise Set
Actual Time 7:20 AM CDT 6:39 PM CDT
Civil Twilight 6:51 AM CDT 7:09 PM CDT
Nautical Twilight 6:17 AM CDT 7:43 PM CDT
Astronomical Twilight 5:43 AM CDT 8:17 PM CDT
Moon No Moon Rise 2:46 PM CDT (10/8)
Length of Visible Light 12h 17m
Length of Day
11h 19m
Last Quarter, 46% of the Moon is Illuminated
Oct 8
Last Quarter
Oct 15
New
Oct 21
First Quarter
Oct 29
Full
Nov 6
Last Quarter

Hourly Weather History & Observations

Time (CDT) Temp. Windchill Dew Point Humidity Pressure Visibility Wind Dir Wind Speed Gust Speed Precip Events Conditions
12:53 AM 37.9 °F 34.4 °F 23.0 °F 55% 29.86 in 10.0 mi SSE 4.6 mph - N/A   Clear
1:53 AM 36.0 °F 32.1 °F 23.0 °F 59% 29.86 in 10.0 mi South 4.6 mph - N/A   Clear
2:53 AM 39.9 °F 35.1 °F 23.0 °F 51% 29.84 in 10.0 mi South 6.9 mph - N/A   Clear
3:53 AM 39.9 °F 35.1 °F 23.0 °F 51% 29.82 in 10.0 mi South 6.9 mph - N/A   Clear
4:53 AM 37.9 °F 33.5 °F 23.0 °F 55% 29.81 in 10.0 mi South 5.8 mph - N/A   Clear
5:53 AM 37.9 °F 33.5 °F 24.1 °F 57% 29.80 in 10.0 mi South 5.8 mph - N/A   Partly Cloudy
6:53 AM 39.0 °F 34.8 °F 25.0 °F 57% 29.78 in 10.0 mi South 5.8 mph - N/A   Overcast
7:53 AM 41.0 °F 35.2 °F 26.1 °F 55% 29.78 in 10.0 mi South 9.2 mph - N/A   Overcast
8:53 AM 43.0 °F 38.8 °F 27.0 °F 53% 29.77 in 10.0 mi South 6.9 mph - N/A   Overcast
9:53 AM 46.0 °F 41.4 °F 28.0 °F 50% 29.75 in 10.0 mi South 9.2 mph - N/A   Mostly Cloudy
10:53 AM 51.1 °F - 28.9 °F 43% 29.71 in 10.0 mi South 15.0 mph 20.7 mph N/A   Clear
11:53 AM 53.1 °F - 30.0 °F 41% 29.70 in 10.0 mi SSE 15.0 mph - N/A   Overcast
12:53 PM 54.0 °F - 30.9 °F 41% 29.66 in 10.0 mi South 17.3 mph 24.2 mph N/A   Overcast
1:53 PM 55.9 °F - 33.1 °F 42% 29.63 in 10.0 mi South 11.5 mph 18.4 mph 0.00 in Rain Light Rain
2:53 PM 59.0 °F - 34.0 °F 39% 29.59 in 10.0 mi South 11.5 mph - 0.00 in Rain Light Rain
3:53 PM 61.0 °F - 34.0 °F 36% 29.59 in 10.0 mi SSW 11.5 mph - 0.00 in Rain Light Rain
4:53 PM 62.1 °F - 30.9 °F 31% 29.59 in 10.0 mi SW 10.4 mph - 0.00 in   Overcast
5:53 PM 63.0 °F - 34.0 °F 34% 29.60 in 10.0 mi WSW 10.4 mph - N/A   Scattered Clouds
6:53 PM 60.1 °F - 37.9 °F 44% 29.63 in 10.0 mi West 9.2 mph - N/A   Scattered Clouds
7:53 PM 59.0 °F - 39.0 °F 48% 29.67 in 10.0 mi WNW 12.7 mph 23.0 mph N/A   Overcast
9:53 PM 50.0 °F - 37.9 °F 63% 29.73 in 10.0 mi WNW 5.8 mph - N/A   Clear
10:53 PM 48.9 °F - 37.0 °F 64% 29.74 in 10.0 mi WSW 4.6 mph - N/A   Clear
11:53 PM 48.0 °F - 37.0 °F 66% 29.74 in 10.0 mi SSW 3.5 mph - N/A   Partly Cloudy